Regional Weather Roundup
Issued by NWS Lake Charles, LA

Home | Current Version | Previous Version | Text Only | Print | Product List | Glossary On
Versions: 1 2 3 4 5 6 7 8 9 10 11 12 13 14 15 16 17 18 19 20 21 22 23 24 25 26 27
000
ASUS44 KLCH 251110
RWRLCH
REGIONAL WEATHER ROUNDUP
NATIONAL WEATHER SERVICE LAKE CHARLES LA
600 AM CDT THU AUG 25 2016

Note: "fair" indicates few or no clouds below 12,000 feet with no
significant weather and/or obstructions to visibility.


ACROSS SOUTHEAST TEXAS

CITY           SKY/WX    TMP DP  RH WIND       PRES   REMARKS
BEAUMONT       CLEAR     77  75  93 CALM      30.06R
BEAUMONT CITY  FAIR      76  74  93 CALM      30.08R
ORANGE         SUNNY     76  74  96 CALM      30.08R FOG
JASPER         CLEAR     75  74  98 CALM      30.10R FOG
$$

ACROSS CENTRAL LOUISIANA

CITY           SKY/WX    TMP DP  RH WIND       PRES   REMARKS
LEESVILLE      CLEAR     76  74  95 E2        30.08R
FULLERTON      FAIR      75  74  96 CALM      30.06R FOG
ALEXANDRIA INT PTCLDY    76  76 100 CALM      30.06R FOG
ESLER FIELD    PTCLDY    75  75 100 CALM      30.08S FOG
DERIDDER       FAIR      75  74  95 CALM      30.09S
OAKDALE        PTSUNNY   75  74  98 CALM      30.08S FOG
OPELOUSAS      FAIR      75  74  99 CALM      30.08R
$$

ACROSS SOUTHWEST AND SOUTH CENTRAL LOUISIANA

CITY           SKY/WX    TMP DP  RH WIND       PRES   REMARKS
SULPHUR        CLOUDY    79  78  96 CALM      30.07S
LAKE CHARLES   CLOUDY    79  77  94 CALM      30.06S
CHENNAULT INT  CLEAR     77  75  94 CALM      30.07S THUNDER
CAMERON PHI    SUNNY     81  77  89 CALM      30.05S
DEQUINCY       FAIR      74  74 100 CALM      30.07S
JENNINGS       FAIR      75  75 100 CALM      30.07S
LAFAYETTE      PTCLDY    79  77  94 N3        30.07R
NEW IBERIA     PTCLDY    77  76  96 CALM      30.07R
ABBEVILLE      FAIR      75  75 100 CALM      30.08R
PATTERSON      CLEAR     78  78 100 CALM      30.07R
SALT POINT       N/A     79  77  94 CALM      30.05R
$$

SELECTED SITES ACROSS THE REGION

CITY           SKY/WX    TMP DP  RH WIND       PRES   REMARKS
HOUSTON BUSH   MOCLDY    75  74  96 CALM      30.06S
HOUSTON HOBBY  CLOUDY    78  76  93 CALM      30.05R
GALVESTON      PTCLDY    82  76  81 W3        30.06R
COLLEGE STAT   CLEAR     76  76 100 CALM      30.05S
CONROE         MOCLDY    72  71  97 CALM      30.07R FOG
HUNTSVILLE     PTCLDY    76  74  93 S3        30.06F
LUFKIN         CLEAR     74  73  97 CALM      30.08R
SHREVEPORT     MOCLDY    79  77  94 W3        30.06S
MONROE         MOCLDY    75  75 100 NE3       30.09R
NATCHEZ MS     PTCLDY    73  70  88 CALM      30.09R
BATON ROUGE    PTCLDY    76  74  93 NE3       30.08R
N.O. INTL ARPT MOCLDY    83  78  85 CALM      30.07R
SLIDELL        CLEAR     75  74  96 N3        30.08R
$$

MARINE REPORTS

STATION/POSITION TIME  SKY/WX   TEMP    WIND        PRES    VSBY
                                AIR SEA DIR/SP/G
                 (UTC)          (F)     (DEG/KT/KT) (MB)    (MI)
BUOY 30 S HIGH I 1050            85 86  170/  2/  4 1017.7R
WVE H/P(F/S)=  1/ 5

SEA RIM ST PARK  1100            80     340/  5/  5 1018.5R
PORT ARTHUR      1000               87   10/  3/  3 1017.7F
SABINE PASS N    1000            81 88   10/  2/  3 1018.9F
TEXAS POINT      NOT AVBL
CALCASIEU PASS   1000            83 87   10/  4/  5 1017.1S
LK CHARLES BEACH 1000            80 83              1018.5S
MARSH ISLAND     1000            84                   N/A
FRESH WATER LOCK 1000            78 92  240/  5/  8 1018.2S
AMERADA PASS     1000            80 86   50/  1/  2 1017.2F
$$




USA.gov is the U.S. government's official web portal to all federal, state and local government web resources and services.